FW8640 Weather Reports


time (UTC)temp
F
wind
direction
speed
knots
gust
knots
rain 1hr
in
rain 24hr
in
rain mn
in
humidity
%
barometer
mb
20260507161102 69 225 0.9 4.3 0.00 0.00 0.00 63 1018.5
20260507160019 69 0.0 0.0 0.00 0.00 0.00 63 1018.2
20260507155017 69 0.0 0.0 0.00 0.00 0.00 64 1018.2
20260507154104 69 0.0 0.0 0.00 0.00 0.00 66 1018.3
20260507153018 69 0.0 0.0 0.00 0.00 0.00 67 1018.5
20260507152019 69 0.0 0.9 0.00 0.00 0.00 66 1018.6
20260507151019 70 0.0 2.6 0.00 0.00 0.00 64 1018.5
20260507150019 71 0.0 2.6 0.00 0.00 0.00 60 1018.4
20260507145102 71 0.0 0.0 0.00 0.00 0.00 59 1018.4
20260507144019 71 0.0 2.6 0.00 0.00 0.00 60 1018.6
20260507143018 71 0.0 1.7 0.00 0.00 0.00 59 1018.5
20260507142019 72 225 1.7 4.3 0.00 0.00 0.00 58 1018.5
20260507141018 72 0.0 3.5 0.00 0.00 0.00 58 1018.3
20260507140019 72 225 0.9 3.5 0.00 0.00 0.00 59 1018.2
20260507135018 71 0.0 0.0 0.00 0.00 0.00 61 1018.2
20260507134019 71 0.0 0.0 0.00 0.00 0.00 64 1018.2
20260507133017 70 0.0 0.0 0.00 0.00 0.00 67 1018.3
20260507132017 69 0.0 0.0 0.00 0.00 0.00 67 1018.4
20260507131020 70 225 0.9 2.6 0.00 0.00 0.00 68 1018.6
20260507130017 70 225 0.9 4.3 0.00 0.00 0.00 67 1018.6
20260507125019 70 0.0 2.6 0.00 0.00 0.00 64 1018.6
20260507124017 70 0.0 0.0 0.00 0.00 0.00 66 1018.5
20260507123017 69 0.0 0.0 0.00 0.00 0.00 67 1019.0
20260507122040 68 0.0 1.7 0.00 0.00 0.00 69 1019.5
20260507121019 68 0.0 0.0 0.00 0.00 0.00 70 1019.5
20260507120017 68 0.0 1.7 0.00 0.00 0.00 70 1019.6
20260507115017 68 0.0 1.7 0.00 0.00 0.00 70 1019.8
20260507114019 68 0.0 1.7 0.00 0.00 0.00 71 1020.0
20260507113018 69 0.0 0.0 0.00 0.00 0.00 72 1020.1
20260507112042 69 0.0 0.0 0.00 0.00 0.00 73 1020.2
20260507111020 69 0.0 0.0 0.00 0.00 0.00 72 1020.3
20260507110019 69 0.0 0.0 0.00 0.00 0.00 70 1020.1
20260507105044 69 0.0 0.0 0.00 0.00 0.00 70 1020.1
20260507104019 68 0.0 0.0 0.00 0.00 0.00 69 1020.1
20260507103020 68 0.0 0.0 0.00 0.00 0.00 68 1020.3
20260507102019 68 0.0 0.0 0.00 0.00 0.00 67 1020.3
20260507101019 69 0.0 0.9 0.00 0.00 0.00 67 1020.3
20260507100019 69 0.0 1.7 0.00 0.00 0.00 68 1020.1
20260507095020 69 225 0.9 3.5 0.00 0.00 0.00 67 1020.1
20260507094040 69 225 0.9 4.3 0.00 0.00 0.00 64 1020.0
20260507093019 69 0.0 0.0 0.00 0.00 0.00 63 1019.8
20260507092021 69 0.0 0.0 0.00 0.00 0.00 65 1019.5
20260507091021 68 0.0 0.0 0.00 0.00 0.00 66 1019.3
20260507090044 68 0.0 0.0 0.00 0.00 0.00 67 1019.3
20260507085021 68 0.0 0.0 0.00 0.00 0.00 68 1019.3
20260507084019 68 0.0 0.0 0.00 0.00 0.00 69 1019.1
20260507083019 67 0.0 0.0 0.00 0.00 0.00 70 1019.1
20260507082018 67 0.0 0.0 0.00 0.00 0.00 70 1019.0
20260507081019 67 0.0 0.0 0.00 0.00 0.00 70 1018.9
20260507080042 68 0.0 0.0 0.00 0.00 0.00 69 1018.8
20260507075019 68 0.0 0.0 0.00 0.00 0.00 69 1018.5
20260507074042 68 0.0 0.0 0.00 0.00 0.00 69 1018.4
20260507073042 68 0.0 0.0 0.00 0.00 0.00 70 1018.2
20260507072019 68 0.0 0.0 0.00 0.00 0.00 70 1018.2
20260507071020 67 0.0 0.0 0.00 0.00 0.00 71 1018.2
20260507070019 67 0.0 0.0 0.00 0.00 0.00 73 1018.1
20260507065022 66 0.0 0.0 0.00 0.00 0.00 73 1018.3
20260507064040 66 0.0 0.0 0.00 0.00 0.00 74 1018.4
20260507063018 65 0.0 0.0 0.00 0.00 0.00 74 1018.3
20260507062018 65 0.0 0.0 0.00 0.00 0.00 75 1018.4
20260507061019 65 0.0 0.0 0.00 0.00 0.00 75 1018.2
20260507060018 66 0.0 3.5 0.00 0.00 0.00 74 1018.1
20260507055021 66 0.0 0.0 0.00 0.00 0.00 75 1017.9
20260507054018 65 0.0 0.0 0.00 0.00 0.00 75 1017.9
20260507053019 65 0.0 0.0 0.00 0.00 0.00 77 1017.9
20260507052018 65 0.0 0.0 0.00 0.00 0.00 79 1017.7
20260507051042 64 0.0 0.0 0.00 0.00 0.00 80 1017.7
20260507050021 63 0.0 0.0 0.00 0.00 0.00 81 1017.7
20260507045019 62 0.0 0.0 0.00 0.00 0.00 82 1017.6
20260507044022 61 0.0 0.0 0.00 0.00 0.00 81 1017.6
20260507043019 60 0.0 0.0 0.00 0.00 0.00 81 1017.6
20260507042020 60 0.0 0.0 0.00 0.00 0.00 81 1017.6
20260507041041 59 0.0 0.0 0.00 0.00 0.00 81 1017.5
20260507040018 59 0.0 0.0 0.00 0.00 0.00 80 1017.5
20260507035103 59 0.0 0.0 0.00 0.00 0.00 79 1017.4
20260507034018 59 0.0 0.0 0.00 0.00 0.00 79 1017.3
20260507033020 59 0.0 0.0 0.00 0.00 0.00 79 1017.2
20260507032019 59 0.0 0.0 0.00 0.00 0.00 79 1017.2
20260507031040 59 0.0 0.0 0.00 0.00 0.00 79 1017.2
20260507030019 59 0.0 0.0 0.00 0.00 0.00 78 1017.1
20260507025018 59 0.0 0.0 0.00 0.00 0.00 79 1017.0
20260507024019 59 0.0 0.0 0.00 0.00 0.00 79 1016.9
20260507023020 59 0.0 0.0 0.00 0.00 0.00 79 1016.7
20260507022020 59 0.0 0.0 0.00 0.00 0.00 79 1016.5
20260507021019 60 0.0 0.0 0.00 0.00 0.00 79 1016.7
20260507020020 60 0.0 0.0 0.00 0.00 0.00 79 1016.7
20260507015020 60 0.0 0.0 0.00 0.00 0.00 78 1016.7
20260507014018 60 0.0 0.0 0.00 0.00 0.00 78 1016.6
20260507013018 60 0.0 0.0 0.00 0.00 0.00 77 1016.7
20260507012018 61 0.0 0.0 0.00 0.00 0.00 76 1016.7
20260507011021 61 0.0 0.0 0.00 0.00 0.00 76 1016.7
20260507010018 62 0.0 0.0 0.00 0.00 0.00 75 1016.6
20260507005020 63 0.0 0.0 0.00 0.00 0.00 75 1016.5
20260507004018 63 0.0 0.0 0.00 0.00 0.00 76 1016.3
20260507003018 63 0.0 3.5 0.00 0.00 0.00 77 1016.3
20260507002040 62 0.0 0.0 0.00 0.00 0.00 78 1016.3
20260507001018 61 0.0 0.0 0.00 0.00 0.00 77 1016.3
20260507000019 61 0.0 0.0 0.00 0.00 0.00 77 1016.4
20260506235103 62 0.0 0.0 0.00 0.00 0.00 77 1016.7
20260506234018 62 0.0 0.0 0.00 0.00 0.00 78 1016.8
20260506233019 61 0.0 0.0 0.00 0.00 0.00 78 1016.9
20260506232018 61 0.0 0.0 0.00 0.00 0.00 76 1016.8
20260506231017 61 0.0 0.0 0.00 0.00 0.00 76 1016.8
20260506230019 61 0.0 0.0 0.00 0.00 0.00 76 1016.9
20260506225018 61 0.0 0.0 0.00 0.00 0.00 77 1016.9
20260506224019 61 0.0 0.0 0.00 0.00 0.00 77 1016.9
20260506223018 62 0.0 0.0 0.00 0.00 0.00 77 1016.9
20260506222017 62 0.0 0.0 0.00 0.00 0.00 77 1017.0
20260506221017 63 0.0 0.0 0.00 0.00 0.00 78 1017.0
20260506220018 64 0.0 0.0 0.00 0.00 0.00 79 1016.9
20260506215039 64 0.0 0.0 0.00 0.00 0.00 79 1017.0
20260506214019 64 0.0 0.0 0.00 0.00 0.00 79 1017.0
20260506213042 64 0.0 1.7 0.00 0.00 0.00 79 1017.0
20260506212017 64 0.0 0.0 0.00 0.00 0.00 79 1017.1
20260506211017 64 0.0 0.0 0.00 0.00 0.00 79 1017.1
20260506210019 64 0.0 2.6 0.00 0.00 0.00 79 1017.1
20260506205018 64 225 0.9 5.2 0.00 0.00 0.00 79 1017.3
20260506204018 65 0.0 1.7 0.00 0.00 0.00 80 1017.1
20260506203019 65 0.0 4.3 0.00 0.00 0.00 81 1016.9
20260506202103 65 0.0 0.0 0.00 0.00 0.00 81 1016.9
20260506201041 65 0.0 0.9 0.00 0.00 0.00 81 1016.7
20260506200018 65 0.0 1.7 0.00 0.00 0.00 81 1016.7
20260506195018 65 225 1.7 5.2 0.00 0.00 0.00 81 1016.7
20260506194018 65 0.0 0.0 0.00 0.00 0.00 81 1016.5
20260506193042 65 0.0 3.5 0.00 0.00 0.00 81 1016.5
20260506192041 65 0.0 2.6 0.00 0.00 0.00 80 1016.4
20260506191018 66 0.0 0.0 0.00 0.00 0.00 80 1016.4
20260506190019 66 0.0 1.7 0.00 0.00 0.00 80 1016.3
20260506185018 66 0.0 0.0 0.00 0.00 0.00 80 1016.3
20260506184041 66 0.0 0.0 0.00 0.00 0.00 80 1016.2
20260506183018 66 0.0 0.0 0.00 0.00 0.00 80 1016.3
20260506182018 66 0.0 0.0 0.00 0.00 0.00 79 1016.1
20260506181041 67 0.0 0.0 0.00 0.00 0.00 78 1016.0
20260506180018 67 0.0 0.0 0.00 0.00 0.00 78 1016.0
20260506175018 67 0.0 0.0 0.00 0.00 0.00 77 1015.8
20260506174020 67 0.0 3.5 0.00 0.00 0.00 76 1015.6
20260506173018 67 0.0 2.6 0.00 0.00 0.00 75 1015.5
20260506172020 68 225 0.9 4.3 0.00 0.00 0.00 73 1015.6
20260506171041 69 0.0 0.0 0.00 0.00 0.00 71 1015.3
20260506170018 69 0.0 0.9 0.00 0.00 0.00 70 1015.4
20260506165041 70 0.0 0.0 0.00 0.00 0.00 72 1015.3
20260506164018 69 0.0 0.0 0.00 0.00 0.00 72 1015.3
20260506163018 69 0.0 3.5 0.00 0.00 0.00 73 1015.4
20260506162019 70 225 2.6 7.8 0.00 0.00 0.00 69 1015.5